Tracking 28518 objects as of 1-Mar-2024
HD Live streaming from Space Station
objects crossing your sky now

STARLINK-1738

Track STARLINK-1738 now!
10-day predictions
STARLINK-1738 is classified as:


NORAD ID: 46336
Int'l Code: 2020-062M
Perigee: 553.4 km
Apogee: 555.3 km
Inclination: 53.1 °
Period: 95.6 minutes
Semi major axis: 6925 km
RCS: Unknown
Launch date: September 3, 2020
Source: United States (US)
Launch site: AIR FORCE EASTERN TEST RANGE (AFETR)
Your satellite tracking list
Your tracking list is empty




NASA's NSSDC Master Catalog

Two Line Element Set (TLE):
1 46336U 20062M   24061.18185703  .00001599  00000-0  12626-3 0  9992
2 46336  53.0543  71.9076 0001401  93.1352 266.9797 15.06390507193468
Source of the keplerian elements: AFSPC